Home > Time Zones > World Clock > Weather > India > Gonda > Past weeks

Flag for India Weather past 2 weeks in Gonda, Uttar Pradesh, India

Now
86 °F

Haze.


Feels Like: 95 °F
Forecast: 80 / 102 °F
Wind: No wind

Location: Lucknow / Amausi

Current Time: Sep 5, 2015 at 10:04:03 PM

Latest Report: Sep 5, 2015 at 9:00 PM


Visibility: 2 mi

Pressure: 29.74 "Hg

Humidity: 70%

Dew point: 75 °F

Location of GondaLocation

Historic Weather in Gonda — Graph

°F

Gonda temperature yesterday

Maximum temperature yesterday: 99 °F (at 12:00 PM)
Minimum temperature yesterday: 81 °F (at 5:00 AM)
Average temperature yesterday: 91 °F

Past Weeks' High & Low Weather Summary

 TemperatureHumidityPressure
High99 °F (Aug 26, 1:00 PM)100% (Aug 22, 5:30 AM)29.80 "Hg (Aug 22, 5:30 AM)
Low75 °F (Aug 22, 8:30 AM)42% (Sep 5, 3:00 PM)29.50 "Hg (Aug 22, 5:00 PM)
Average89 °F75%29.61 "Hg
* Reported Aug 21 8:30 PM — Sep 5 8:30 PM, Gonda, Weather by CustomWeather, © 2015

Note: Actual official high and low records may vary slightly from our data, if they occured in-between our weather recording intervals... More about our weather records

Advertising

Gonda weather history for previous 24 hours

 ConditionsComfort  
Time TempWeatherWind HumidityBarometerVisibility
8:30 PM
Sat, Sep 5
88 °FHaze.No wind66%29.71 "Hg2 mi
8:00 PM88 °FHaze.No wind66%29.71 "Hg2 mi
7:30 PM90 °FHaze.No wind63%29.71 "Hg3 mi
7:00 PM91 °FHaze.3 mph56%29.68 "Hg3 mi
6:30 PM93 °FHaze.5 mph53%29.68 "Hg3 mi
6:00 PM95 °FHaze.7 mph50%29.68 "Hg3 mi
5:30 PM97 °FHaze.7 mph47%29.68 "Hg3 mi
5:00 PM97 °FHaze.7 mph47%29.68 "Hg3 mi
4:30 PM97 °FHaze.10 mph47%29.68 "Hg3 mi
4:00 PM99 °FHaze.10 mph44%29.68 "Hg3 mi
3:30 PM99 °FHaze.10 mph42%29.68 "Hg3 mi
3:00 PM99 °FHaze.13 mph42%29.71 "Hg3 mi
2:30 PM99 °FHaze.12 mph44%29.71 "Hg3 mi
2:00 PM99 °FHaze.10 mph44%29.74 "Hg3 mi
1:30 PM99 °FHaze.10 mph44%29.74 "Hg3 mi
1:00 PM99 °FHaze.10 mph44%29.77 "Hg3 mi
12:30 PM97 °FHaze.10 mph47%29.77 "Hg3 mi
12:00 PM97 °FHaze.10 mph47%29.80 "Hg3 mi
11:30 AM97 °FHaze.12 mph47%29.80 "Hg3 mi
11:00 AM97 °FHaze.12 mph47%29.80 "Hg3 mi
10:30 AM95 °FScattered clouds.12 mph53%29.80 "Hg3 mi
10:00 AM95 °FScattered clouds.9 mph50%29.80 "Hg3 mi
8:30 AM86 °FHaze.5 mph75%29.80 "Hg2 mi
8:00 AM84 °FHaze.6 mph74%29.80 "Hg2 mi
7:30 AM82 °FHaze.5 mph79%29.80 "Hg2 mi
7:00 AM81 °FHaze.No wind84%29.80 "Hg2 mi
6:30 AM79 °FHaze.No wind79%29.77 "Hg2 mi
6:00 AM79 °FHaze.No wind79%29.77 "Hg2 mi
5:30 AM79 °FHaze.No wind79%29.77 "Hg2 mi
5:00 AM79 °FHaze.No wind79%29.77 "Hg2 mi
4:00 AM79 °FHaze.No wind79%29.74 "Hg2 mi
3:00 AM81 °FHaze.No wind79%29.74 "Hg2 mi
2:00 AM81 °FHaze.No wind79%29.74 "Hg2 mi
12:00 AM84 °FHaze.No wind74%29.77 "Hg2 mi
11:00 PM
Fri, Sep 4
84 °FHaze.No wind79%29.77 "Hg2 mi
10:00 PM86 °FHaze.No wind75%29.77 "Hg2 mi
Weather by CustomWeather, © 2015

See weather overviewHow to use our weather pages